Location: L�Ave Maria
(50.7161°N, 1.5911°E)
Time: 23:33:44
(UTC+00:00)

Cosmos 2360 Rocket - Pass Details

Date: 10 July 2020
Orbit: 832 x 846 km, 71.0° (Epoch: 14 August)

Event Time Altitude Azimuth Distance (km) Brightness Sun altitude
Rises 20:57:58 0° 233° (SW) 3,385 5.4 -7.0°
Reaches altitude 10° 21:00:33 10° 240° (WSW) 2,456 4.8 -7.3°
Maximum altitude 21:05:51 41° 310° (NW) 1,209 3.8 -7.8°
Drops below altitude 10° 21:11:13 10° 21° (NNE) 2,477 5.1 -8.3°
Sets 21:13:50 0° 28° (NNE) 3,417 5.7 -8.6°
